Location: Audinghen
(50.8518°N, 1.6129°E)
Time: 10:37:01
(UTC+00:00)

USA 229 - Pass Details

Date: 07 August 2020
Orbit: 975 x 1237 km, 63.4° (Epoch: 17 September)

Event Time Altitude Azimuth Distance (km) Brightness Sun altitude
Exits shadow 02:48:44 13° 192° (SSW) 2,532 5.2 -13.3°
Maximum altitude 02:54:16 49° 122° (ESE) 1,307 4.3 -12.7°
Drops below altitude 10° 03:00:48 10° 50° (NE) 2,922 7.5 -12.0°
Sets 03:03:37 0° 45° (NE) 3,923 8.9 -11.7°
